Weather History for Mammoth, CA

Change the Weather History Date:

Monday, September 23, 2013

  Actual Average Record
Temperature  
Mean Temperature 52 °F -  
Max Temperature 75 °F 66 °F 80 °F (2003)
Min Temperature 30 °F 49 °F 30 °F (2013)
Degree Days  
Heating Degree Days 12    
Growing Degree Days 2 (Base 50)    
Moisture  
Dew Point 24 °F    
Average Humidity 49    
Maximum Humidity 93    
Minimum Humidity 7    
Precipitation  
Precipitation 0.00 in - - ()
Sea Level Pressure  
Sea Level Pressure 30.18 in    
Wind  
Wind Speed 3 mph (East)    
Max Wind Speed 13 mph    
Max Gust Speed 16 mph    
Visibility 10 miles    
Events      
Averages and records for this station are not official NWS values.
T = Trace of Precipitation, MM = Missing Value Source: NWS Daily Summary

Daily Weather History Graph

Daily Weather History Graph

Search for Another Location

Airport:

Trip Planner

Search our weather history database for the weather conditions in past years. The results will help you decide how hot, cold, wet, or windy it might be!

Date:

Astronomy

Sep. 23, 2013 Rise Set
Actual Time 6:44 AM PDT 6:50 PM PDT
Civil Twilight 6:18 AM PDT 7:16 PM PDT
Nautical Twilight 5:47 AM PDT 7:46 PM PDT
Astronomical Twilight 5:16 AM PDT 8:17 PM PDT
Moon 9:31 PM PDT 11:02 AM PDT
Length of Visible Light 12h 58m
Length of Day
12h 05m
Waning Gibbous, 80% of the Moon is Illuminated
Sep 23
Waning Gibbous
Sep 26
Last Quarter
Oct 4
New
Oct 11
First Quarter
Oct 18
Full

Hourly Weather History & Observations

Time (PDT) Temp. Windchill Dew Point Humidity Pressure Visibility Wind Dir Wind Speed Gust Speed Precip Events Conditions
12:15 AM 39.2 °F - 30.2 °F 70% 30.15 in 10.0 mi Calm Calm - N/A   Clear
12:35 AM 39.2 °F - 32.0 °F 75% 30.15 in 10.0 mi Calm Calm - N/A   Clear
12:55 AM 37.4 °F - 32.0 °F 81% 30.16 in 10.0 mi Calm Calm - N/A   Clear
1:15 AM 37.4 °F - 32.0 °F 81% 30.16 in 10.0 mi Calm Calm - N/A   Clear
1:35 AM 39.2 °F 37.0 °F 32.0 °F 75% 30.17 in 10.0 mi North 3.5 mph - N/A   Clear
1:55 AM 35.6 °F 32.8 °F 32.0 °F 87% 30.17 in 10.0 mi North 3.5 mph - N/A   Clear
2:15 AM 37.4 °F - 32.0 °F 81% 30.16 in 10.0 mi Calm Calm - N/A   Clear
2:35 AM 37.4 °F 31.4 °F 32.0 °F 81% 30.16 in 10.0 mi NW 8.1 mph - N/A   Clear
2:55 AM 35.6 °F 32.8 °F 32.0 °F 87% 30.16 in 10.0 mi North 3.5 mph - N/A   Clear
3:15 AM 33.8 °F - 30.2 °F 87% 30.16 in 10.0 mi Calm Calm - N/A   Clear
3:35 AM 33.8 °F - 30.2 °F 87% 30.16 in 10.0 mi Calm Calm - N/A   Clear
3:55 AM 33.8 °F - 30.2 °F 87% 30.16 in 10.0 mi Calm Calm - N/A   Clear
4:15 AM 32.0 °F 28.7 °F 30.2 °F 93% 30.16 in 10.0 mi North 3.5 mph - N/A   Clear
4:35 AM 32.0 °F 28.7 °F 30.2 °F 93% 30.17 in 10.0 mi NW 3.5 mph - N/A   Clear
4:55 AM 32.0 °F - 28.4 °F 87% 30.17 in 10.0 mi Calm Calm - N/A   Clear
5:15 AM 32.0 °F 27.5 °F 30.2 °F 93% 30.17 in 10.0 mi NNW 4.6 mph - N/A   Clear
5:35 AM 30.2 °F 26.7 °F 28.4 °F 93% 30.17 in 10.0 mi North 3.5 mph - N/A   Clear
5:55 AM 30.2 °F - 28.4 °F 93% 30.18 in 10.0 mi Calm Calm - N/A   Clear
6:15 AM 32.0 °F - 28.4 °F 87% 30.18 in 10.0 mi Calm Calm - N/A   Clear
6:35 AM 32.0 °F 28.7 °F 28.4 °F 87% 30.18 in 10.0 mi NNW 3.5 mph - N/A   Clear
6:55 AM 30.2 °F 26.7 °F 28.4 °F 93% 30.19 in 10.0 mi North 3.5 mph - N/A   Clear
7:15 AM 30.2 °F - 26.6 °F 86% 30.20 in 10.0 mi Calm Calm - N/A   Clear
7:35 AM 32.0 °F - 28.4 °F 87% 30.20 in 10.0 mi Calm Calm - N/A   Clear
7:55 AM 33.8 °F - 30.2 °F 87% 30.21 in 10.0 mi Calm Calm - N/A   Clear
8:15 AM 37.4 °F - 32.0 °F 81% 30.21 in 10.0 mi Calm Calm - N/A   Clear
8:35 AM 41.0 °F - 32.0 °F 70% 30.21 in 10.0 mi Calm Calm - N/A   Clear
8:55 AM 44.6 °F - 33.8 °F 66% 30.22 in 10.0 mi Calm Calm - N/A   Clear
9:15 AM 48.2 °F - 33.8 °F 58% 30.22 in 10.0 mi SSE 5.8 mph - N/A   Clear
9:55 AM 51.8 °F - 33.8 °F 50% 30.22 in 10.0 mi SE 5.8 mph - N/A   Clear
10:15 AM 55.4 °F - 33.8 °F 44% 30.22 in 10.0 mi SSE 5.8 mph - N/A   Clear
10:35 AM 57.2 °F - 32.0 °F 38% 30.22 in 10.0 mi SSE 4.6 mph - N/A   Clear
11:35 AM 64.4 °F - 17.6 °F 16% 30.21 in 10.0 mi SE 4.6 mph - N/A   Clear
11:55 AM 66.2 °F - 14.0 °F 13% 30.21 in 10.0 mi SE 3.5 mph - N/A   Clear
12:35 PM 69.8 °F - 1.4 °F 7% 30.20 in 10.0 mi Calm Calm - N/A   Clear
12:55 PM 69.8 °F - 3.2 °F 7% 30.19 in 10.0 mi SE 3.5 mph - N/A   Clear
1:15 PM 71.6 °F - 6.8 °F 8% 30.18 in 10.0 mi SSE 3.5 mph - N/A   Clear
1:35 PM 73.4 °F - 12.2 °F 10% 30.18 in 10.0 mi SSE 10.4 mph - N/A   Clear
1:55 PM 73.4 °F - 14.0 °F 10% 30.17 in 10.0 mi ESE 4.6 mph - N/A   Clear
2:15 PM 75.2 °F - 15.8 °F 11% 30.17 in 10.0 mi SSE 6.9 mph - N/A   Clear
2:35 PM 75.2 °F - 17.6 °F 11% 30.17 in 10.0 mi ESE 9.2 mph - N/A   Clear
2:55 PM 75.2 °F - 15.8 °F 11% 30.16 in 10.0 mi ESE 10.4 mph - N/A   Clear
3:15 PM 75.2 °F - 17.6 °F 11% 30.16 in 10.0 mi ESE 9.2 mph - N/A   Clear
3:35 PM 75.2 °F - 17.6 °F 11% 30.16 in 10.0 mi ESE 5.8 mph - N/A   Clear
3:55 PM 75.2 °F - 17.6 °F 11% 30.16 in 10.0 mi East 11.5 mph 16.1 mph N/A   Clear
4:15 PM 75.2 °F - 17.6 °F 11% 30.15 in 10.0 mi ESE 12.7 mph 16.1 mph N/A   Clear
4:35 PM 73.4 °F - 15.8 °F 11% 30.15 in 10.0 mi ESE 10.4 mph 16.1 mph N/A   Clear
4:55 PM 73.4 °F - 15.8 °F 11% 30.16 in 10.0 mi East 4.6 mph - N/A   Clear
5:15 PM 73.4 °F - 14.0 °F 10% 30.16 in 10.0 mi WSW 4.6 mph - N/A   Clear
5:35 PM 71.6 °F - 17.6 °F 13% 30.16 in 10.0 mi East 9.2 mph - N/A   Clear
5:55 PM 69.8 °F - 17.6 °F 14% 30.16 in 10.0 mi ESE 10.4 mph - N/A   Clear
6:15 PM 68.0 °F - 17.6 °F 15% 30.16 in 10.0 mi ESE 9.2 mph - N/A   Clear
6:35 PM 64.4 °F - 15.8 °F 15% 30.16 in 10.0 mi East 8.1 mph - N/A   Clear
6:55 PM 60.8 °F - 19.4 °F 20% 30.17 in 10.0 mi East 3.5 mph - N/A   Clear
7:15 PM 59.0 °F - 19.4 °F 22% 30.17 in 10.0 mi Calm Calm - N/A   Clear
7:35 PM 55.4 °F - 21.2 °F 26% 30.18 in 10.0 mi Calm Calm - N/A   Clear
7:55 PM 53.6 °F - 21.2 °F 28% 30.19 in 10.0 mi NW 4.6 mph - N/A   Clear
8:15 PM 50.0 °F - 21.2 °F 32% 30.20 in 10.0 mi Calm Calm - N/A   Clear
8:35 PM 50.0 °F - 21.2 °F 32% 30.20 in 10.0 mi Calm Calm - N/A   Clear
8:55 PM 46.4 °F 44.3 °F 23.0 °F 40% 30.21 in 10.0 mi NNW 4.6 mph - N/A   Clear
9:15 PM 44.6 °F 43.1 °F 23.0 °F 43% 30.22 in 10.0 mi NNW 3.5 mph - N/A   Clear
9:35 PM 46.4 °F - 23.0 °F 40% 30.22 in 10.0 mi Calm Calm - N/A   Clear
9:55 PM 46.4 °F 45.2 °F 23.0 °F 40% 30.22 in 2.0 mi North 3.5 mph - N/A   Haze
10:15 PM 44.6 °F 43.1 °F 23.0 °F 43% 30.23 in 7.0 mi North 3.5 mph - N/A   Clear
10:35 PM 42.8 °F - 23.0 °F 46% 30.23 in 10.0 mi Calm Calm - N/A   Clear
10:55 PM 46.4 °F - 23.0 °F 40% 30.23 in 10.0 mi Calm Calm - N/A   Clear
11:15 PM 46.4 °F 45.2 °F 26.6 °F 46% 30.22 in 10.0 mi WNW 3.5 mph - N/A   Clear
11:35 PM 41.0 °F - 26.6 °F 57% 30.23 in 10.0 mi Calm Calm - N/A   Clear
11:55 PM 42.8 °F - 26.6 °F 53% 30.22 in 10.0 mi Calm Calm - N/A   Clear